Location: Feydey
(46.3431°N, 7.0106°E)
Time: 23:29:48
(UTC+00:00)

Cosmos 1606 Rocket - Pass Details

Date: 20 June 2021
Orbit: 602 x 632 km, 82.5° (Epoch: 23 July)

Event Time Altitude Azimuth Distance (km) Brightness Sun altitude
Rises 21:33:41 0° 354° (N) 2,935 8.4 -15.1°
Reaches altitude 10° 21:35:58 10° 359° (N) 2,020 7.2 -15.3°
Maximum altitude 21:40:23 57° 78° (ENE) 745 3.8 -15.6°
Enters shadow 21:42:30 28° 145° (SE) 1,169 4.4 -15.8°
